TimeEDT,TemperatureF,Dew PointF,Humidity,Sea Level PressureIn,VisibilityMPH,Wind Direction,Wind SpeedMPH,Gust SpeedMPH,PrecipitationIn,Events,Conditions,WindDirDegrees,DateUTC
12:08 AM,48.2,48.2,100,29.64,4.0,Calm,Calm,-,N/A,,Clear,0,2013-05-16 04:08:00
12:15 AM,48.2,46.4,93,29.64,3.0,Calm,Calm,-,N/A,,Partly Cloudy,0,2013-05-16 04:15:00
12:21 AM,48.2,46.4,93,29.64,1.2,Calm,Calm,-,N/A,,Partly Cloudy,0,2013-05-16 04:21:00
12:27 AM,46.4,46.4,100,29.64,0.2,Calm,Calm,-,N/A,Fog,Fog,0,2013-05-16 04:27:00
12:50 AM,46.4,44.6,93,29.64,0.2,Calm,Calm,-,N/A,Fog,Fog,0,2013-05-16 04:50:00
12:53 AM,46.0,45.0,96,29.64,0.2,Calm,Calm,-,N/A,Fog,Fog,0,2013-05-16 04:53:00
1:08 AM,44.6,44.6,100,29.64,0.2,Calm,Calm,-,N/A,Fog,Fog,0,2013-05-16 05:08:00
1:29 AM,46.4,46.4,100,29.64,0.2,Calm,Calm,-,0.01,Fog,Fog,0,2013-05-16 05:29:00
1:53 AM,46.0,45.0,96,29.64,0.2,Calm,Calm,-,0.01,Fog,Fog,0,2013-05-16 05:53:00
2:53 AM,44.1,44.1,100,29.65,0.2,Calm,Calm,-,N/A,Fog,Fog,0,2013-05-16 06:53:00
3:53 AM,46.0,46.0,100,29.64,0.2,Calm,Calm,-,N/A,Fog,Fog,0,2013-05-16 07:53:00
4:15 AM,46.4,46.4,100,29.63,-9999.0,North,-9999.0,-,N/A,,Unknown,0,2013-05-16 08:15:00
4:53 AM,-9999,-9999,N/A,29.64,-9999.0,North,-9999.0,-,N/A,,Unknown,0,2013-05-16 08:53:00
5:53 AM,46.4,44.6,93,29.65,0.2,Calm,Calm,-,N/A,Fog,Fog,0,2013-05-16 09:53:00
6:00 AM,-9999,-9999,N/A,29.65,-9999.0,North,-9999.0,-,N/A,Fog,Fog,0,2013-05-16 10:00:00
6:09 AM,46.4,44.6,93,29.65,0.2,Calm,Calm,-,N/A,Fog,Fog,0,2013-05-16 10:09:00
6:53 AM,46.4,44.6,93,29.67,0.2,Calm,Calm,-,N/A,Fog,Fog,0,2013-05-16 10:53:00
7:53 AM,50.0,48.2,94,29.67,1.0,Calm,Calm,-,N/A,,Overcast,0,2013-05-16 11:53:00
8:00 AM,-9999,-9999,N/A,29.67,-9999.0,North,-9999.0,-,N/A,,Mist,0,2013-05-16 12:00:00
8:28 AM,50.0,50.0,100,29.67,10.0,Calm,Calm,-,N/A,,Scattered Clouds,0,2013-05-16 12:28:00
8:53 AM,55.4,53.6,94,29.67,10.0,Calm,Calm,-,N/A,,Clear,0,2013-05-16 12:53:00
9:53 AM,64.4,46.4,52,29.65,10.0,Calm,Calm,-,N/A,,Clear,0,2013-05-16 13:53:00
10:53 AM,64.4,48.2,56,29.65,10.0,Calm,Calm,-,N/A,,Clear,0,2013-05-16 14:53:00
11:29 AM,69.8,35.6,28,29.66,10.0,NW,18.4,31.1,N/A,,Clear,320,2013-05-16 15:29:00
11:53 AM,69.8,35.6,28,29.64,10.0,NW,18.4,31.1,N/A,,Clear,320,2013-05-16 15:53:00
12:36 PM,73.4,33.8,23,29.64,10.0,Variable,6.9,27.6,N/A,,Partly Cloudy,0,2013-05-16 16:36:00
12:53 PM,73.9,36.0,25,29.62,10.0,West,18.4,29.9,N/A,,Scattered Clouds,260,2013-05-16 16:53:00
1:53 PM,77.0,32.0,19,29.60,10.0,West,19.6,34.5,N/A,,Partly Cloudy,270,2013-05-16 17:53:00
2:53 PM,75.9,32.0,20,29.60,10.0,WNW,16.1,28.8,N/A,,Mostly Cloudy,290,2013-05-16 18:53:00
3:53 PM,75.9,33.1,21,29.60,10.0,West,19.6,29.9,N/A,,Clear,280,2013-05-16 19:53:00
4:53 PM,75.0,32.0,21,29.61,10.0,West,17.3,24.2,N/A,,Mostly Cloudy,280,2013-05-16 20:53:00
6:53 PM,73.0,34.0,24,29.64,10.0,NNW,8.1,-,N/A,,Mostly Cloudy,330,2013-05-16 22:53:00
7:53 PM,66.0,39.9,38,29.71,10.0,North,13.8,21.9,N/A,,Clear,360,2013-05-16 23:53:00
8:53 PM,60.1,42.1,51,29.78,10.0,North,8.1,17.3,N/A,,Clear,350,2013-05-17 00:53:00
9:53 PM,57.0,41.0,55,29.81,10.0,NNW,9.2,-,N/A,,Clear,340,2013-05-17 01:53:00
10:53 PM,54.0,41.0,62,29.82,10.0,North,4.6,-,N/A,,Clear,360,2013-05-17 02:53:00
11:53 PM,48.0,41.0,77,29.84,10.0,Calm,Calm,-,N/A,,Scattered Clouds,0,2013-05-17 03:53:00